Castlebar Airport

Jump to: basic info | weather | comments

Related pages: nearby airports | nearby navaids | notams | map

Basic information (top)

Codes: CLB EICB
Location: lon 53.848400, lat -9.280370
Status: small_airport

Weather (top)

Current conditions for Ireland West Knock Airport 17nm (31km) ENE (rec'd 2014/12/21 14:30Z):

EIKN 211430Z 24020KT 9999 BKN011 BKN018 11/10 Q1013 NOSIG

Airport forecast for Ireland West Knock Airport 17nm (31km) ENE (rec'd 2014/12/21 12:25Z):

TAF EIKN 211100Z 2112/2212 22017G28KT 6000 -RADZ BKN004 
      TEMPO 2112/2212 24024G38KT 1500 DZ BKN002 OVC004

Latest comments (top)

No longer exists.: This airport was closed in 2001 and the ... [read]

fv: fg [read]

More... (top)

See also NOTAMs and nearby airports and navaids, or visit the Castlebar Airport page at the main OurAirports website..